Time,TemperatureF,DewpointF,PressureIn,WindDirection,WindDirectionDegrees,WindSpeedMPH,WindSpeedGustMPH,Humidity,HourlyPrecipIn,Conditions,Clouds,dailyrainin,SoftwareType,DateUTC
2015-07-03 00:13:00,58.9,55.0,29.89,NW,320,0.0,0.0,86,0.00,,,0.00,weatherlink.com 1.10,2015-07-03 04:13:00,
2015-07-03 00:28:00,58.7,54.0,29.89,NW,320,0.0,0.0,85,0.00,,,0.00,weatherlink.com 1.10,2015-07-03 04:28:00,
2015-07-03 00:58:00,57.6,53.0,29.89,NW,320,0.0,0.0,84,0.00,,,0.00,weatherlink.com 1.10,2015-07-03 04:58:00,
2015-07-03 01:13:00,57.1,53.0,29.89,NW,320,0.0,0.0,85,0.00,,,0.00,weatherlink.com 1.10,2015-07-03 05:13:00,
2015-07-03 01:29:00,56.4,52.0,29.89,NW,320,0.0,0.0,86,0.00,,,0.00,weatherlink.com 1.10,2015-07-03 05:29:00,
2015-07-03 01:44:00,55.5,51.0,29.90,NW,320,0.0,0.0,86,0.00,,,0.00,weatherlink.com 1.10,2015-07-03 05:44:00,
2015-07-03 01:59:00,55.1,51.0,29.90,NW,320,0.0,0.0,86,0.00,,,0.00,weatherlink.com 1.10,2015-07-03 05:59:00,
2015-07-03 02:14:00,55.2,51.0,29.90,NW,320,0.0,0.0,86,0.00,,,0.00,weatherlink.com 1.10,2015-07-03 06:14:00,
2015-07-03 02:29:00,55.2,51.0,29.91,NW,320,0.0,0.0,86,0.00,,,0.00,weatherlink.com 1.10,2015-07-03 06:29:00,
2015-07-03 02:44:00,54.9,51.0,29.91,NW,320,0.0,0.0,86,0.00,,,0.00,weatherlink.com 1.10,2015-07-03 06:44:00,
2015-07-03 02:59:00,54.4,50.0,29.91,NNW,342,0.0,0.0,86,0.00,,,0.00,weatherlink.com 1.10,2015-07-03 06:59:00,
2015-07-03 03:14:00,54.1,49.0,29.91,NNW,342,0.0,0.0,82,0.00,,,0.00,weatherlink.com 1.10,2015-07-03 07:14:00,
2015-07-03 03:29:00,54.1,50.0,29.91,NNW,342,0.0,0.0,85,0.00,,,0.00,weatherlink.com 1.10,2015-07-03 07:29:00,
2015-07-03 03:44:00,53.5,48.0,29.90,North,355,0.0,0.0,81,0.00,,,0.00,weatherlink.com 1.10,2015-07-03 07:44:00,
2015-07-03 03:59:00,53.2,47.0,29.90,North,360,0.0,0.0,80,0.00,,,0.00,weatherlink.com 1.10,2015-07-03 07:59:00,
2015-07-03 04:14:00,53.0,47.0,29.91,North,360,0.0,0.0,79,0.00,,,0.00,weatherlink.com 1.10,2015-07-03 08:14:00,
2015-07-03 04:29:00,53.0,47.0,29.91,North,360,0.0,0.0,81,0.00,,,0.00,weatherlink.com 1.10,2015-07-03 08:29:00,
2015-07-03 04:44:00,52.7,48.0,29.91,North,360,0.0,0.0,84,0.00,,,0.00,weatherlink.com 1.10,2015-07-03 08:44:00,
2015-07-03 04:59:00,51.8,48.0,29.91,North,360,0.0,0.0,87,0.00,,,0.00,weatherlink.com 1.10,2015-07-03 08:59:00,
2015-07-03 05:14:00,51.7,48.0,29.91,North,355,0.0,0.0,87,0.00,,,0.00,weatherlink.com 1.10,2015-07-03 09:14:00,
2015-07-03 05:29:00,51.9,48.0,29.92,North,5,0.0,0.0,87,0.00,,,0.00,weatherlink.com 1.10,2015-07-03 09:29:00,
2015-07-03 05:44:00,51.8,48.0,29.92,North,5,0.0,0.0,87,0.00,,,0.00,weatherlink.com 1.10,2015-07-03 09:44:00,
2015-07-03 05:59:00,51.6,48.0,29.93,NNE,27,0.0,0.0,87,0.00,,,0.00,weatherlink.com 1.10,2015-07-03 09:59:00,
2015-07-03 06:14:00,51.5,48.0,29.93,NNE,17,0.0,0.0,88,0.00,,,0.00,weatherlink.com 1.10,2015-07-03 10:14:00,
2015-07-03 06:29:00,51.9,49.0,29.94,NNE,16,0.0,0.0,88,0.00,,,0.00,weatherlink.com 1.10,2015-07-03 10:29:00,
2015-07-03 06:44:00,52.1,49.0,29.95,NNE,16,0.0,0.0,88,0.00,,,0.00,weatherlink.com 1.10,2015-07-03 10:44:00,
2015-07-03 06:59:00,52.5,49.0,29.95,NNE,16,0.0,0.0,88,0.00,,,0.00,weatherlink.com 1.10,2015-07-03 10:59:00,
2015-07-03 07:14:00,52.8,49.0,29.95,NNE,26,0.0,0.0,88,0.00,,,0.00,weatherlink.com 1.10,2015-07-03 11:14:00,
2015-07-03 07:29:00,53.7,51.0,29.96,NNE,26,0.0,0.0,89,0.00,,,0.00,weatherlink.com 1.10,2015-07-03 11:29:00,
2015-07-03 07:44:00,54.8,51.0,29.96,NNE,26,0.0,0.0,87,0.00,,,0.00,weatherlink.com 1.10,2015-07-03 11:44:00,
2015-07-03 07:59:00,56.4,52.0,29.96,NNE,26,0.0,0.0,85,0.00,,,0.00,weatherlink.com 1.10,2015-07-03 11:59:00,
2015-07-03 08:14:00,57.7,52.0,29.97,NNE,21,0.0,0.0,81,0.00,,,0.00,weatherlink.com 1.10,2015-07-03 12:14:00,
2015-07-03 08:29:00,59.2,52.0,29.97,ESE,104,0.0,0.0,77,0.00,,,0.00,weatherlink.com 1.10,2015-07-03 12:29:00,
2015-07-03 08:44:00,60.6,52.0,29.97,ENE,61,0.0,0.0,73,0.00,,,0.00,weatherlink.com 1.10,2015-07-03 12:44:00,
2015-07-03 08:59:00,61.7,51.0,29.97,NE,51,0.0,0.0,69,0.00,,,0.00,weatherlink.com 1.10,2015-07-03 12:59:00,
2015-07-03 09:14:00,63.0,53.0,29.98,NE,48,0.0,0.0,70,0.00,,,0.00,weatherlink.com 1.10,2015-07-03 13:14:00,
2015-07-03 09:30:00,63.1,49.0,29.98,NE,49,0.0,0.0,61,0.00,,,0.00,weatherlink.com 1.10,2015-07-03 13:30:00,
2015-07-03 09:45:00,64.0,47.0,29.97,ENE,61,0.0,1.0,55,0.00,,,0.00,weatherlink.com 1.10,2015-07-03 13:45:00,
2015-07-03 10:00:00,64.6,45.0,29.97,NE,52,1.0,1.0,50,0.00,,,0.00,weatherlink.com 1.10,2015-07-03 14:00:00,
2015-07-03 10:15:00,65.2,47.0,29.97,North,360,0.0,2.0,53,0.00,,,0.00,weatherlink.com 1.10,2015-07-03 14:15:00,
2015-07-03 10:30:00,65.6,46.0,29.97,WNW,303,0.0,1.0,50,0.00,,,0.00,weatherlink.com 1.10,2015-07-03 14:30:00,
2015-07-03 10:45:00,65.8,46.0,29.97,NNW,336,0.0,0.0,49,0.01,,,0.01,weatherlink.com 1.10,2015-07-03 14:45:00,
2015-07-03 11:00:00,66.9,48.0,29.96,East,99,1.0,1.0,50,0.01,,,0.01,weatherlink.com 1.10,2015-07-03 15:00:00,
2015-07-03 11:15:00,67.6,50.0,29.97,SSW,200,1.0,2.0,54,0.01,,,0.01,weatherlink.com 1.10,2015-07-03 15:15:00,
2015-07-03 11:30:00,67.5,48.0,29.97,SSW,213,1.0,3.0,49,0.01,,,0.01,weatherlink.com 1.10,2015-07-03 15:30:00,
2015-07-03 11:45:00,67.7,47.0,29.97,SSW,207,0.0,1.0,47,0.00,,,0.01,weatherlink.com 1.10,2015-07-03 15:45:00,
2015-07-03 12:15:00,69.0,48.0,29.96,West,279,0.0,1.0,48,0.00,,,0.01,weatherlink.com 1.10,2015-07-03 16:15:00,
2015-07-03 12:30:00,69.7,49.0,29.96,South,190,0.0,1.0,48,0.00,,,0.01,weatherlink.com 1.10,2015-07-03 16:30:00,
2015-07-03 12:45:00,70.5,50.0,29.95,NE,42,0.0,1.0,49,0.00,,,0.01,weatherlink.com 1.10,2015-07-03 16:45:00,
2015-07-03 13:00:00,70.0,50.0,29.95,SSE,151,0.0,0.0,49,0.00,,,0.01,weatherlink.com 1.10,2015-07-03 17:00:00,
2015-07-03 13:15:00,70.6,51.0,29.95,East,94,0.0,1.0,50,0.00,,,0.01,weatherlink.com 1.10,2015-07-03 17:15:00,
2015-07-03 13:30:00,71.3,53.0,29.95,SSE,157,1.0,1.0,52,0.00,,,0.01,weatherlink.com 1.10,2015-07-03 17:30:00,
2015-07-03 13:45:00,70.6,52.0,29.95,SW,233,0.0,3.0,52,0.00,,,0.01,weatherlink.com 1.10,2015-07-03 17:45:00,
2015-07-03 14:00:00,70.9,52.0,29.95,SW,233,1.0,3.0,52,0.00,,,0.01,weatherlink.com 1.10,2015-07-03 18:00:00,
2015-07-03 14:15:00,71.2,52.0,29.95,SW,226,2.0,3.0,51,0.00,,,0.01,weatherlink.com 1.10,2015-07-03 18:15:00,